Regional Weather Roundup
Issued by NWS Sioux Falls, SD

Home | Current Version | Previous Version | Graphics & Text | Print | Product List | Glossary Off
Versions: 1 2 3 4 5 6 7 8 9 10 11 12 13 14 15 16 17 18 19 20 21 22 23 24 25 26 27 28 29 30 31 32 33 34 35 36 37 38 39 40 41 42 43 44 45 46 47 48 49 50

612
ASUS43 KFSD 250310
RWRFSD

WEATHER ROUNDUP FOR SE SOUTH DAKOTA/SW MINNESOTA/NW IOWA
NATIONAL WEATHER SERVICE SIOUX FALLS SD
1000 PM CDT WED MAY 24 2017

NOTE: "FAIR" INDICATES FEW OR NO CLOUDS BELOW 12,000 FEET WITH NO
SIGNIFICANT WEATHER AND OR OBSTRUCTIONS TO VISIBILITY.


SDZ038>040-050-052>070-250400-
SOUTHEAST SOUTH DAKOTA

CITY           SKY/WX    TMP DP  RH WIND       PRES   REMARKS
BROOKINGS      CLEAR     52  45  77 SE12      29.65R
CHAMBERLAIN    CLEAR     59  45  60 SE14G21   29.51F
HURON          CLEAR     55  46  71 SE12      29.58R
MITCHELL       CLEAR     57  46  66 SE14      29.59F
SIOUX FALLS    CLEAR     56  45  66 SE9       29.64F
WINNER         FAIR      60  45  57 SE20      29.47F
YANKTON        CLEAR     56  45  66 E8        29.62F
$$

MNZ071-072-080-081-089-090-097-098-250400-
SOUTHWEST MINNESOTA

CITY           SKY/WX    TMP DP  RH WIND       PRES   REMARKS
FAIRMONT       CLOUDY    55  49  80 E6        29.71R
MARSHALL       CLOUDY    55  47  74 SE7       29.68S
REDWOOD FALLS  MOCLDY    56  45  66 E5        29.68S
WORTHINGTON    CLEAR     51  47  86 SE6       29.69S
$$

IAZ001>003-012>014-020>022-031-032-NEZ013-014-SDZ071-250400-
NORTHWEST IOWA

CITY           SKY/WX    TMP DP  RH WIND       PRES   REMARKS
CHEROKEE       CLEAR     51  47  87 E5        29.68S
DENISON        CLEAR     52  46  82 E3        29.70R
ESTHERVILLE    PTCLDY    51  49  92 CALM      29.69R
LE MARS        CLEAR     57  45  62 SE6       29.67S
ORANGE CITY    CLEAR     55  46  71 E5        29.67S
SHELDON        CLEAR     52  45  76 E7        29.66S
SIOUX CITY     CLEAR     55  45  68 SE6       29.66S
SPENCER        CLEAR     51  47  86 E6        29.69R
STORM LAKE     CLEAR     54  45  71 E3        29.69R
$$

ABBREVIATIONS USED IN REMARKS
   TC - TEMPERATURE IN CELSIUS
  WCI - WIND CHILL INDEX
   HX - HEAT INDEX
  VSB - VISIBILITY





USA.gov is the U.S. government's official web portal to all federal, state and local government web resources and services.